Location: Eastmont
(37.7691°N, 122.1722°W)
Time: 12:38:40
(UTC+00:00)

Daily predictions for brighter satellites

Satellite Brightness Start Highest point End
(mag) Time Altitude Azimuth Time Altitude Azimuth Time Altitude Azimuth
Cosmos 2333 Rocket 4.3 12:29:53 13° NNE 12:33:21 22° NE 12:37:43 10° ESE
USA 59 Rocket 1.2 12:36:57 43° ESE 12:36:57 43° ESE 12:40:57 10° SE
Aureole 1 Rocket 4.2 12:42:03 61° NNW 12:43:31 81° WSW 12:50:55 10° SSE
Cosmos 2180 Rocket 4.3 12:46:12 78° W 12:46:17 78° W 12:52:36 10° S
COSMOS 2455 2.7 12:47:28 80° NNW 12:47:50 90° NE 12:53:51 10° SSE
NOSS 2-1 (E) 4.2 12:50:25 52° ENE 12:50:25 52° ENE 12:55:06 10° SE
Cosmos 2322 Rocket 4.3 12:47:04 10° N 12:51:30 23° NE 12:55:54 10° ESE
CZ-3 Stage 3 4.2 12:46:58 39° WSW 12:51:40 59° S 13:28:17 10° ESE
NOSS 2-1 (C) 3.4 13:08:08 84° SSW 13:08:08 84° SSW 13:13:23 10° SSE
Meteor 2-3 Rocket 3.6 13:07:58 10° SSW 13:13:42 76° W 13:19:24 10° N
Cosmos 2237 4.1 13:12:44 46° NW 13:14:28 74° WSW 13:20:07 10° SSE
COSMOS 2406 3.8 13:16:23 36° NNW 13:16:23 36° NNW 13:20:24 10° N
Cosmos 2082 Rocket 4.2 13:20:37 12° N 13:20:37 12° N 13:21:12 10° N
Cosmos 1428 Rocket 4.4 13:13:34 10° SSW 13:19:40 59° W 13:25:52 10° N
NOAA 12 4.0 13:14:32 10° NNE 13:19:50 87° ESE 13:25:04 10° SSW
Cosmos 1092 Rocket 4.0 13:14:09 10° S 13:20:25 81° E 13:26:40 10° N
SL-16 R/B 2.4 13:16:46 20° NNW 13:20:43 68° ENE 13:26:20 10° SSE
SKYMED 2 3.7 13:17:07 10° SSE 13:21:26 72° ENE 13:24:24 20° N
Nadezhda 4 Rocket 4.2 13:15:35 10° SSW 13:21:37 47° W 13:27:39 10° N
CZ-3 R/B 4.0 13:14:57 23° W 13:23:09 32° SW 13:30:45 10° SSE
Cosmos 2058 Rocket 3.9 13:18:59 10° N 13:23:18 51° E 13:27:33 10° SSE
Cosmos 1606 Rocket 4.4 13:35:45 32° WSW 13:35:45 32° WSW 13:38:50 10° SSW
Meteor 2-20 4.3 13:29:46 10° N 13:35:53 84° W 13:41:57 10° S
Cosmos 1980 Rocket 4.2 13:41:11 11° SW 13:41:11 11° SW 13:41:37 10° SW
BREEZE-M DEB (TANK) 2.9 13:41:51 23° SW 13:43:23 60° SE 13:45:42 10° ENE
Cosmos 2278 3.6 13:40:34 14° NNW 13:45:26 86° WSW 13:51:04 10° SSE
OAO 2 Rocket 3.9 13:44:17 18° WSW 13:47:56 54° SSE 13:52:56 10° E
Cosmos 1484 Rocket 2.8 13:45:09 10° NNE 13:48:31 63° ESE 13:51:49 10° S
Cosmos 1758 Rocket 4.1 13:45:48 10° S 13:50:10 63° E 13:54:31 10° NNE
RUBIN 8/PSLV 4.4 13:50:35 10° N 13:54:50 66° WNW 13:59:02 10° SSW
ISS -0.5 13:54:40 10° SSE 13:56:42 15° SE 13:58:44 10° E
[s.n.66875] 4.1 13:54:53 10° SSW 13:56:45 18° SE 13:58:38 10° E
Meteor 2-20 Rocket 4.2 13:51:34 10° N 13:57:18 80° W 14:02:59 10° S
[s.n.66873] 4.1 13:55:34 10° SSW 13:57:27 19° SE 13:59:22 10° E
Helios 1A Rocket 2.2 13:54:10 10° S 13:57:28 72° WSW 14:00:21 13° NNW
[s.n.66876] 4.1 13:56:01 10° SSW 13:57:56 19° SE 13:59:51 10° E
NOSS 3-1 (C) 4.4 13:52:17 18° NW 13:58:13 52° WSW 14:07:07 10° S
[s.n.66874] 4.1 13:56:48 10° SSW 13:58:44 19° SE 14:00:40 10° E
Cosmos 1726 Rocket 4.4 13:58:17 25° WNW 13:58:48 25° W 14:02:13 10° SW
[s.n.66872] 4.0 13:57:35 10° SSW 13:59:32 19° SE 14:01:29 10° E
[s.n.66871] 4.0 13:58:07 10° SSW 14:00:05 20° SE 14:02:03 10° E
[s.n.66870] 4.0 13:58:55 10° SSW 14:00:55 20° SE 14:02:54 10° E
[s.n.66869] 4.0 13:59:42 10° SSW 14:01:42 20° SE 14:03:43 10° E
Tiangong 0.0 14:01:27 15° SW 14:02:18 16° SW 14:04:23 10° S
[s.n.66868] 3.9 14:00:19 10° SSW 14:02:19 21° SE 14:04:20 10° E
[s.n.66867] 3.9 14:01:05 10° SSW 14:03:07 21° SSE 14:05:10 10° E
IRS-1D 4.2 13:59:00 10° N 14:03:23 31° WNW 14:07:51 10° SW
[s.n.66866] 3.9 14:01:49 10° SSW 14:03:52 21° SSE 14:05:56 10° E
[s.n.66865] 3.9 14:02:21 10° SSW 14:04:25 22° SSE 14:06:30 10° E
[s.n.66860] 3.9 14:03:00 10° SSW 14:05:05 22° SSE 14:07:11 10° E
[s.n.66864] 3.8 14:03:38 10° SSW 14:05:43 22° SSE 14:07:49 10° E
[s.n.66863] 3.8 14:04:13 10° SSW 14:06:19 23° SSE 14:08:26 10° E
BREEZE M DEB (TANK) 2.1 14:06:06 28° WNW 14:06:43 34° NNW 14:09:47 10° NE
Cosmos 405 Rocket 2.2 14:03:43 10° SSW 14:06:55 56° W 14:10:08 10° N
[s.n.66861] 3.8 14:05:02 10° SSW 14:07:09 23° SSE 14:09:17 10° E
[s.n.66862] 3.8 14:05:40 10° SSW 14:07:48 23° SSE 14:09:56 10° E
[s.n.66859] 3.7 14:06:21 10° SSW 14:08:31 24° SSE 14:10:40 10° E
[s.n.66858] 3.7 14:07:01 10° SSW 14:09:10 24° SSE 14:11:21 10° E
[s.n.66857] 3.7 14:07:36 10° SSW 14:09:46 24° SSE 14:11:57 10° E
[s.n.66856] 3.7 14:08:08 10° SSW 14:10:19 25° SSE 14:12:31 10° E
COSMO-SKYMED 1 2.8 14:07:00 10° S 14:10:55 43° W 14:14:52 10° NNW
[s.n.66855] 3.6 14:08:49 10° SSW 14:11:00 25° SSE 14:13:12 10° E
Cosmos 2360 Rocket 2.2 14:05:50 10° NNW 14:11:30 89° ENE 14:17:06 10° SSE
[s.n.66854] 3.6 14:09:23 10° SSW 14:11:36 25° SSE 14:13:49 10° E
[s.n.66853] 3.6 14:10:06 10° SSW 14:12:19 26° SSE 14:14:33 10° E
Cosmos 1626 Rocket 3.6 14:08:05 10° SSW 14:12:26 58° W 14:16:47 10° N
Cosmos-2242 3.3 14:08:39 10° NNW 14:12:39 42° W 14:16:35 10° SSW
OAO 3 Rocket 3.9 14:08:23 10° WSW 14:12:53 50° SSE 14:17:27 10° E
[s.n.66852] 3.5 14:10:52 10° SSW 14:13:05 26° SSE 14:15:20 10° E
[s.n.66851] 3.5 14:11:22 10° SSW 14:13:37 26° SSE 14:15:51 10° E
[s.n.66850] 3.5 14:11:55 10° SSW 14:14:10 27° SSE 14:16:25 10° E
Cosmos 1833 4.2 14:08:51 10° SW 14:14:23 60° WNW 14:20:01 10° NNE
Okean 1 3.4 14:11:04 10° NNW 14:14:26 41° W 14:17:47 10° SSW
[s.n.66849] 3.5 14:12:37 10° SSW 14:14:53 27° SSE 14:17:09 10° E
[s.n.66848] 3.5 14:13:09 10° SSW 14:15:25 27° SSE 14:17:42 10° E
Cosmos 2333 Rocket 2.4 14:12:22 10° NNW 14:17:58 53° WSW 14:23:29 10° S
SL-4 R/B 3.1 14:16:38 11° NNW 14:19:13 24° NNE 14:21:52 10° E
BREEZE-M DEB (TANK) 4.2 14:15:21 14° WNW 14:19:19 31° SW 14:22:14 10° SSE
USA 59 Rocket 2.1 14:22:39 11° W 14:24:38 14° WSW 14:27:20 10° SSW
IGS 5A 3.5 14:22:37 10° N 14:26:29 49° WNW 14:30:21 10° SSW
Cosmos 2219 Rocket 2.5 14:22:25 10° NNW 14:28:04 71° ENE 14:33:39 10° SSE
ARIANE 5 R/B 3.4 14:24:53 10° NNE 14:30:02 56° E 14:35:08 10° S
SAR-Lupe-4 4.3 14:30:01 10° NNE 14:33:32 58° ESE 14:37:02 10° S
Cosmos 2322 Rocket 2.5 14:30:19 10° NNW 14:35:48 50° WSW 14:41:12 10° S
Cosmos 2285 Rocket 4.1 14:32:36 10° NNW 14:38:55 63° WSW 14:45:13 10° S
KORONAS-FOTON 4.1 14:36:49 10° N 14:40:09 58° E 14:43:27 10° SSE
Cosmos 1842 4.3 14:39:54 10° N 14:43:03 39° E 14:46:09 10° SSE
SAR-Lupe-1 4.4 14:40:46 10° NNE 14:44:22 70° ESE 14:47:55 10° S
ATLAS 2AS CENTAUR R/B 2.9 14:39:05 10° SW 14:46:01 56° NW 14:52:48 10° NNE
